Location: Moscow
(55.7500°N, 37.5830°E)
Time: 16:15:16
(UTC+03:00)

Vanguard 2 Rocket - Pass Details

Date: 08 December 2021
Orbit: 553 x 3325 km, 32.9° (Epoch: 23 January)

Event Time Altitude Azimuth Distance (km) Brightness Sun altitude
Rises 19:03:59 0° 219° (SW) 3,369 10.5 -24.5°
Reaches altitude 10° 19:08:36 10° 183° (S) 2,928 9.6 -25.2°
Maximum altitude 19:10:24 11° 169° (SSE) 3,055 9.5 -25.4°
Drops below altitude 10° 19:12:23 10° 154° (SSE) 3,360 9.6 -25.7°
Enters shadow 19:13:01 - 150° (SSE) 3,486 9.6 -25.8°
